Location: Eboldshausen
(51.7766°N, 10.0050°E)
Time: 07:44:45
(UTC+00:00)

FENGYUN 3A - Pass Details

Date: 15 June 2024
Orbit: 822 x 834 km, 98.6° (Epoch: 22 July)

Event Time Altitude Azimuth Distance (km) Brightness Sun altitude
Rises 01:52:29 0° 15° (NNE) 3,371 8.4 -7.9°
Reaches altitude 10° 01:54:50 10° 16° (NNE) 2,435 7.5 -7.7°
Maximum altitude 02:00:15 83° 105° (ESE) 838 3.8 -7.2°
Drops below altitude 10° 02:05:38 10° 194° (SSW) 2,423 5.5 -6.7°
Enters shadow 02:06:40 - 194° (SSW) 2,832 5.9 -6.6°
